Time,TemperatureF,DewpointF,PressureIn,WindDirection,WindDirectionDegrees,WindSpeedMPH,WindSpeedGustMPH,Humidity,HourlyPrecipIn,Conditions,Clouds,dailyrainin,SoftwareType,DateUTC
2013-08-19 00:05:00,63.3,59.0,30.11,SW,222,0.0,0.0,85,0.00,,,0.00,weatherlink.com 1.10,2013-08-19 04:05:00,
2013-08-19 00:20:00,63.0,59.0,30.10,SW,222,0.0,1.0,85,0.00,,,0.00,weatherlink.com 1.10,2013-08-19 04:20:00,
2013-08-19 00:35:00,62.5,58.0,30.09,SW,223,0.0,0.0,85,0.00,,,0.00,weatherlink.com 1.10,2013-08-19 04:35:00,
2013-08-19 00:50:00,61.8,57.0,30.09,SW,222,0.0,1.0,85,0.00,,,0.00,weatherlink.com 1.10,2013-08-19 04:50:00,
2013-08-19 01:05:00,61.6,57.0,30.09,SW,222,0.0,0.0,85,0.00,,,0.00,weatherlink.com 1.10,2013-08-19 05:05:00,
2013-08-19 01:20:00,61.1,57.0,30.09,SW,222,0.0,0.0,85,0.00,,,0.00,weatherlink.com 1.10,2013-08-19 05:20:00,
2013-08-19 01:35:00,60.7,56.0,30.09,SW,223,0.0,0.0,85,0.00,,,0.00,weatherlink.com 1.10,2013-08-19 05:35:00,
2013-08-19 01:51:00,60.5,56.0,30.08,SW,222,0.0,0.0,84,0.00,,,0.00,weatherlink.com 1.10,2013-08-19 05:51:00,
2013-08-19 02:06:00,60.1,55.0,30.08,SW,222,0.0,0.0,84,0.00,,,0.00,weatherlink.com 1.10,2013-08-19 06:06:00,
2013-08-19 02:21:00,59.7,55.0,30.08,SW,222,0.0,0.0,84,0.00,,,0.00,weatherlink.com 1.10,2013-08-19 06:21:00,
2013-08-19 02:36:00,59.6,54.0,30.09,SW,223,0.0,0.0,83,0.00,,,0.00,weatherlink.com 1.10,2013-08-19 06:36:00,
2013-08-19 02:51:00,59.1,54.0,30.09,SW,222,0.0,0.0,83,0.00,,,0.00,weatherlink.com 1.10,2013-08-19 06:51:00,
2013-08-19 03:06:00,58.9,53.0,30.09,SW,222,0.0,0.0,82,0.00,,,0.00,weatherlink.com 1.10,2013-08-19 07:06:00,
2013-08-19 03:21:00,58.4,53.0,30.09,SW,222,0.0,0.0,82,0.00,,,0.00,weatherlink.com 1.10,2013-08-19 07:21:00,
2013-08-19 03:36:00,58.0,53.0,30.09,SW,222,0.0,0.0,82,0.00,,,0.00,weatherlink.com 1.10,2013-08-19 07:36:00,
2013-08-19 03:51:00,57.9,52.0,30.09,SW,222,0.0,0.0,82,0.00,,,0.00,weatherlink.com 1.10,2013-08-19 07:51:00,
2013-08-19 04:06:00,57.2,52.0,30.09,SW,222,0.0,0.0,82,0.00,,,0.00,weatherlink.com 1.10,2013-08-19 08:06:00,
2013-08-19 04:21:00,57.1,51.0,30.09,SW,222,0.0,0.0,81,0.00,,,0.00,weatherlink.com 1.10,2013-08-19 08:21:00,
2013-08-19 04:36:00,56.7,51.0,30.08,SW,223,0.0,0.0,82,0.00,,,0.00,weatherlink.com 1.10,2013-08-19 08:36:00,
2013-08-19 04:51:00,56.3,51.0,30.09,SW,222,0.0,0.0,82,0.00,,,0.00,weatherlink.com 1.10,2013-08-19 08:51:00,
2013-08-19 05:06:00,55.9,51.0,30.09,SW,222,0.0,0.0,82,0.00,,,0.00,weatherlink.com 1.10,2013-08-19 09:06:00,
2013-08-19 05:21:00,55.5,50.0,30.09,SW,222,0.0,0.0,82,0.00,,,0.00,weatherlink.com 1.10,2013-08-19 09:21:00,
2013-08-19 05:36:00,55.4,50.0,30.09,SW,222,0.0,0.0,82,0.00,,,0.00,weatherlink.com 1.10,2013-08-19 09:36:00,
2013-08-19 05:51:00,55.0,50.0,30.09,SW,222,0.0,0.0,82,0.00,,,0.00,weatherlink.com 1.10,2013-08-19 09:51:00,
2013-08-19 06:06:00,54.8,49.0,30.09,SW,221,0.0,0.0,82,0.00,,,0.00,weatherlink.com 1.10,2013-08-19 10:06:00,
2013-08-19 06:21:00,54.8,49.0,30.10,SW,222,0.0,0.0,82,0.00,,,0.00,weatherlink.com 1.10,2013-08-19 10:21:00,
2013-08-19 06:36:00,55.0,50.0,30.11,SW,222,0.0,0.0,82,0.00,,,0.00,weatherlink.com 1.10,2013-08-19 10:36:00,
2013-08-19 06:52:00,54.6,49.0,30.11,SW,222,0.0,0.0,82,0.00,,,0.00,weatherlink.com 1.10,2013-08-19 10:52:00,
2013-08-19 07:06:00,54.7,49.0,30.11,SW,222,0.0,0.0,82,0.00,,,0.00,weatherlink.com 1.10,2013-08-19 11:06:00,
2013-08-19 07:21:00,54.8,49.0,30.11,SW,222,0.0,0.0,82,0.00,,,0.00,weatherlink.com 1.10,2013-08-19 11:21:00,
2013-08-19 07:36:00,54.9,50.0,30.11,SW,222,0.0,0.0,82,0.00,,,0.00,weatherlink.com 1.10,2013-08-19 11:36:00,
2013-08-19 07:51:00,55.4,50.0,30.11,SW,222,0.0,1.0,82,0.00,,,0.00,weatherlink.com 1.10,2013-08-19 11:51:00,
2013-08-19 08:06:00,56.3,51.0,30.11,SW,221,0.0,0.0,82,0.00,,,0.00,weatherlink.com 1.10,2013-08-19 12:06:00,
2013-08-19 08:21:00,57.5,52.0,30.11,SW,221,0.0,0.0,82,0.00,,,0.00,weatherlink.com 1.10,2013-08-19 12:21:00,
2013-08-19 08:36:00,58.7,53.0,30.11,SW,221,0.0,0.0,82,0.00,,,0.00,weatherlink.com 1.10,2013-08-19 12:36:00,
2013-08-19 08:51:00,60.1,54.0,30.11,WSW,244,0.0,0.0,81,0.00,,,0.00,weatherlink.com 1.10,2013-08-19 12:51:00,
2013-08-19 09:06:00,61.9,57.0,30.11,WNW,283,1.0,1.0,85,0.00,,,0.00,weatherlink.com 1.10,2013-08-19 13:06:00,
2013-08-19 09:21:00,64.0,60.0,30.11,West,271,0.0,2.0,87,0.00,,,0.00,weatherlink.com 1.10,2013-08-19 13:21:00,
2013-08-19 09:36:00,66.4,61.0,30.10,WSW,248,1.0,2.0,83,0.00,,,0.00,weatherlink.com 1.10,2013-08-19 13:36:00,
2013-08-19 09:52:00,68.6,62.0,30.10,West,260,1.0,3.0,79,0.00,,,0.00,weatherlink.com 1.10,2013-08-19 13:52:00,
2013-08-19 10:07:00,70.4,62.0,30.10,West,281,0.0,4.0,74,0.00,,,0.00,weatherlink.com 1.10,2013-08-19 14:07:00,
2013-08-19 10:22:00,72.0,62.0,30.09,WSW,245,0.0,3.0,71,0.00,,,0.00,weatherlink.com 1.10,2013-08-19 14:22:00,
2013-08-19 10:37:00,73.0,61.0,30.10,WNW,303,2.0,4.0,67,0.00,,,0.00,weatherlink.com 1.10,2013-08-19 14:37:00,
2013-08-19 10:52:00,73.3,61.0,30.09,WNW,294,3.0,5.0,66,0.00,,,0.00,weatherlink.com 1.10,2013-08-19 14:52:00,
2013-08-19 11:07:00,74.3,62.0,30.09,SW,221,2.0,4.0,65,0.00,,,0.00,weatherlink.com 1.10,2013-08-19 15:07:00,
2013-08-19 11:22:00,75.6,62.0,30.09,SSW,205,0.0,5.0,62,0.00,,,0.00,weatherlink.com 1.10,2013-08-19 15:22:00,
2013-08-19 11:37:00,76.2,61.0,30.09,SE,145,1.0,5.0,60,0.00,,,0.00,weatherlink.com 1.10,2013-08-19 15:37:00,
2013-08-19 11:52:00,76.9,62.0,30.09,ESE,118,2.0,7.0,61,0.00,,,0.00,weatherlink.com 1.10,2013-08-19 15:52:00,
2013-08-19 12:07:00,77.6,62.0,30.09,SE,125,1.0,6.0,59,0.00,,,0.00,weatherlink.com 1.10,2013-08-19 16:07:00,
2013-08-19 12:22:00,77.9,63.0,30.09,WSW,246,3.0,5.0,60,0.00,,,0.00,weatherlink.com 1.10,2013-08-19 16:22:00,
2013-08-19 12:37:00,78.7,62.0,30.09,SSW,212,1.0,5.0,57,0.00,,,0.00,weatherlink.com 1.10,2013-08-19 16:37:00,
2013-08-19 12:52:00,79.1,62.0,30.09,WSW,258,1.0,6.0,57,0.00,,,0.00,weatherlink.com 1.10,2013-08-19 16:52:00,
2013-08-19 13:07:00,79.3,62.0,30.08,South,181,1.0,6.0,56,0.00,,,0.00,weatherlink.com 1.10,2013-08-19 17:07:00,
2013-08-19 13:22:00,80.8,63.0,30.08,WNW,290,2.0,7.0,54,0.00,,,0.00,weatherlink.com 1.10,2013-08-19 17:22:00,
2013-08-19 13:37:00,79.2,61.0,30.07,WNW,292,5.0,9.0,53,0.00,,,0.00,weatherlink.com 1.10,2013-08-19 17:37:00,
2013-08-19 13:52:00,79.8,62.0,30.07,West,270,2.0,10.0,54,0.00,,,0.00,weatherlink.com 1.10,2013-08-19 17:52:00,
2013-08-19 14:07:00,80.1,62.0,30.07,West,276,4.0,9.0,54,0.00,,,0.00,weatherlink.com 1.10,2013-08-19 18:07:00,
2013-08-19 14:22:00,80.7,63.0,30.07,SW,226,1.0,6.0,55,0.00,,,0.00,weatherlink.com 1.10,2013-08-19 18:22:00,
2013-08-19 14:37:00,81.4,60.0,30.06,NNW,334,1.0,9.0,49,0.00,,,0.00,weatherlink.com 1.10,2013-08-19 18:37:00,
2013-08-19 14:52:00,81.7,61.0,30.06,NW,321,4.0,7.0,49,0.00,,,0.00,weatherlink.com 1.10,2013-08-19 18:52:00,
2013-08-19 15:07:00,80.7,61.0,30.06,WNW,292,2.0,10.0,51,0.00,,,0.00,weatherlink.com 1.10,2013-08-19 19:07:00,
2013-08-19 15:22:00,80.9,61.0,30.06,SSE,152,2.0,5.0,51,0.00,,,0.00,weatherlink.com 1.10,2013-08-19 19:22:00,
2013-08-19 15:37:00,80.8,60.0,30.05,WNW,297,4.0,11.0,49,0.00,,,0.00,weatherlink.com 1.10,2013-08-19 19:37:00,
2013-08-19 15:53:00,81.4,59.0,30.05,WNW,287,2.0,8.0,47,0.00,,,0.00,weatherlink.com 1.10,2013-08-19 19:53:00,
2013-08-19 16:08:00,81.4,60.0,30.04,NW,309,5.0,8.0,49,0.00,,,0.00,weatherlink.com 1.10,2013-08-19 20:08:00,
2013-08-19 16:23:00,81.6,61.0,30.04,WNW,289,1.0,7.0,50,0.00,,,0.00,weatherlink.com 1.10,2013-08-19 20:23:00,
2013-08-19 16:38:00,81.6,60.0,30.04,WSW,248,8.0,8.0,48,0.00,,,0.00,weatherlink.com 1.10,2013-08-19 20:38:00,
2013-08-19 16:53:00,82.0,61.0,30.04,NNW,330,2.0,8.0,49,0.00,,,0.00,weatherlink.com 1.10,2013-08-19 20:53:00,
2013-08-19 17:08:00,82.3,61.0,30.03,WNW,292,2.0,6.0,49,0.00,,,0.00,weatherlink.com 1.10,2013-08-19 21:08:00,
2013-08-19 17:23:00,80.8,60.0,30.03,WSW,253,2.0,10.0,49,0.00,,,0.00,weatherlink.com 1.10,2013-08-19 21:23:00,
2013-08-19 17:38:00,80.7,60.0,30.03,SW,222,4.0,8.0,49,0.00,,,0.00,weatherlink.com 1.10,2013-08-19 21:38:00,
2013-08-19 17:53:00,80.9,60.0,30.03,SW,222,2.0,8.0,50,0.00,,,0.00,weatherlink.com 1.10,2013-08-19 21:53:00,
2013-08-19 18:08:00,80.5,60.0,30.03,WNW,285,3.0,8.0,50,0.00,,,0.00,weatherlink.com 1.10,2013-08-19 22:08:00,
2013-08-19 18:23:00,80.8,60.0,30.03,WSW,250,2.0,7.0,50,0.00,,,0.00,weatherlink.com 1.10,2013-08-19 22:23:00,
2013-08-19 18:38:00,80.1,60.0,30.03,WNW,297,6.0,8.0,50,0.00,,,0.00,weatherlink.com 1.10,2013-08-19 22:38:00,
2013-08-19 18:53:00,80.0,60.0,30.03,West,276,2.0,7.0,50,0.00,,,0.00,weatherlink.com 1.10,2013-08-19 22:53:00,
2013-08-19 19:08:00,79.8,60.0,30.03,West,276,2.0,6.0,51,0.00,,,0.00,weatherlink.com 1.10,2013-08-19 23:08:00,
2013-08-19 19:23:00,79.8,61.0,30.03,West,262,2.0,5.0,53,0.00,,,0.00,weatherlink.com 1.10,2013-08-19 23:23:00,
2013-08-19 19:38:00,78.6,61.0,30.02,West,277,1.0,5.0,55,0.00,,,0.00,weatherlink.com 1.10,2013-08-19 23:38:00,
2013-08-19 19:53:00,77.9,60.0,30.02,WSW,255,2.0,5.0,55,0.00,,,0.00,weatherlink.com 1.10,2013-08-19 23:53:00,
2013-08-19 20:08:00,77.6,61.0,30.02,SW,215,0.0,3.0,57,0.00,,,0.00,weatherlink.com 1.10,2013-08-20 00:08:00,
2013-08-19 20:23:00,76.3,61.0,30.02,WNW,300,0.0,2.0,59,0.00,,,0.00,weatherlink.com 1.10,2013-08-20 00:23:00,
2013-08-19 20:38:00,74.9,60.0,30.02,West,262,0.0,1.0,61,0.00,,,0.00,weatherlink.com 1.10,2013-08-20 00:38:00,
2013-08-19 20:53:00,73.8,61.0,30.03,South,170,0.0,2.0,64,0.00,,,0.00,weatherlink.com 1.10,2013-08-20 00:53:00,
2013-08-19 21:08:00,72.8,61.0,30.03,South,170,0.0,0.0,66,0.00,,,0.00,weatherlink.com 1.10,2013-08-20 01:08:00,
2013-08-19 21:23:00,71.8,61.0,30.03,South,170,0.0,0.0,68,0.00,,,0.00,weatherlink.com 1.10,2013-08-20 01:23:00,
2013-08-19 21:38:00,70.8,61.0,30.03,South,170,0.0,0.0,71,0.00,,,0.00,weatherlink.com 1.10,2013-08-20 01:38:00,
2013-08-19 21:53:00,69.9,61.0,30.04,South,170,0.0,0.0,74,0.00,,,0.00,weatherlink.com 1.10,2013-08-20 01:53:00,
2013-08-19 22:08:00,69.3,61.0,30.04,South,170,0.0,0.0,75,0.00,,,0.00,weatherlink.com 1.10,2013-08-20 02:08:00,
2013-08-19 22:23:00,68.6,61.0,30.04,South,170,0.0,0.0,77,0.00,,,0.00,weatherlink.com 1.10,2013-08-20 02:23:00,
2013-08-19 22:38:00,68.0,61.0,30.04,South,170,0.0,0.0,79,0.00,,,0.00,weatherlink.com 1.10,2013-08-20 02:38:00,
2013-08-19 22:53:00,67.4,61.0,30.04,South,170,0.0,0.0,80,0.00,,,0.00,weatherlink.com 1.10,2013-08-20 02:53:00,
2013-08-19 23:08:00,66.8,61.0,30.04,South,170,0.0,0.0,81,0.00,,,0.00,weatherlink.com 1.10,2013-08-20 03:08:00,
2013-08-19 23:23:00,66.2,61.0,30.04,South,170,0.0,0.0,82,0.00,,,0.00,weatherlink.com 1.10,2013-08-20 03:23:00,
2013-08-19 23:38:00,65.5,60.0,30.04,South,170,0.0,0.0,83,0.00,,,0.00,weatherlink.com 1.10,2013-08-20 03:38:00,
2013-08-19 23:53:00,65.1,60.0,30.04,South,170,0.0,0.0,84,0.00,,,0.00,weatherlink.com 1.10,2013-08-20 03:53:00,